Dakar 2012 13ème étape

Dakar 2012 Argentine/Chili/Perou 13ème étape

Source : http://dakar.sport.francetv.fr/tous-les-classements

samedi 14 janvier : Liaison 100km - Spécial 275km

Classement de la 13ème étape Moto - Nasca - Pisco

RangNuméroPilote/EquipageEquipeMarque - ModèleTempsRetard
1 003 RODRIGUES Helder TEAM YAMAHA RACING YAMAHA - WRF 450 03:21:16
2 002 DESPRES Cyril TEAM RED BULL KTM KTM - 450cc Rally 03:22:03 00:00:47
3 010 VILADOMS Jordi BORDONE-FERRARI KTM - Rally Replica 03:24:16 00:03:00
4 023 BARREDA BORT Joan HUSQVARNA RALLYE TEAM BY SPEEDBRAIN HUSQVARNA - Rally 450 RR 03:26:29 00:05:13
5 007 GONCALVES Paulo HUSQVARNA RALLYE TEAM BY SPEEDBRAIN Husqvarna - Rally 450 RR 03:27:02 00:05:46
6 006 ULLEVALSETER Pal Anders TEAM ULLEVALSETER KTM - 450 R 03:27:11 00:05:55
7 034 BOTTURI ALESSANDRO BORDONE-FERRARI KTM - 450 RALLY REPLICA 03:27:48 00:06:32
8 015 VERHOEVEN Frans SHERCO RALLY RAID - CROCOAVENTURES SHERCO - SR 450 03:27:54 00:06:38
9 008 FARIA Ruben TEAM RED BULL KTM KTM - 450 CC RALLY 03:28:22 00:07:06
10 064 SCHRÖDER DANIEL MEMO TOURS - ALFIE COX TEAM KTM - 450cc 03:29:30 00:08:14
11 032 SVITKO Stefan HANT LOGOMOTION SLOVAKIA KTM - 450 RR 03:31:29 00:10:13
12 028 ZANOL FELIPE KTM BRASIL KTM - 450 Replica 03:31:42 00:10:26
13 014 CASTEU David TEAM YAMAHA RACING YAMAHA - 450 WRF Rally 03:32:28 00:11:12
14 020 FARRES GUELL Gerard BORDONE-FERRARI KTM - 450 RALLY REPLICA 03:33:14 00:11:58
15 021 AUBERT JOHNNY KTM RALLY FACTORY TEAM KTM - 450 RALLY 03:33:27 00:12:11
16 016 PAIN Olivier TEAM YAMAHA RACING YAMAHA - 450 YZF Rally 03:33:53 00:12:37
17 053 RODRIGUEZ Claudio TAMARUGAL HONDA RACING XC RALLY TEAM HONDA - CRF 450 X 03:34:22 00:13:06
18 001 COMA Marc KTM MRW RALLY DAKAR EAM KTM - 450 cc 03:34:41 00:13:25
19 018 KNUIMAN Henk WIM MOTORS DAKAR KTM - 450 REPLICA 03:34:44 00:13:28
20 022 DUCLOS Alain GIOFIL APRILIA APRILIA - RXV 4.5 Rally 03:35:41 00:14:25
21 017 CZACHOR Jacek ORLEN TEAM KTM - 450 Replica 03:36:10 00:14:54
22 050 SALVATIERRA Juan Carlos GHR HONDA HONDA - CRF450X 03:36:41 00:15:25
23 183 RODRIGUEZ Pablo HONDA RACING ARGENTINA HONDA - CRF450X 03:38:31 00:17:15
24 039 GYENES Emanuel VECTRA RACING KTM - 450 RR 03:40:12 00:18:56
25 012 PELLICER Jose Manuel HUSQVARNA RALLYE TEAM BY SPEEDBRAIN HUSQVARNA - Rally 450 RR 03:41:40 00:20:24
26 144 CURTIS Darryl MEMO TOURS - ALFIE COX TEAM KTM - 450 Replica 03:42:45 00:21:29
27 040 SERRADORI Mathieu KTM - 450 Rally 03:43:23 00:22:07
28 033 BETHYS Thierry YAMAHA - 450 YZF Rally 03:44:15 00:22:59
29 110 BIRCH Christopher MEMO TOURS - ALFIE COX TEAM KTM - 450 Replica 03:47:19 00:26:03
30 089 NASCIMENTO DENISIO PETROBRAS LUBRAX HONDA - CRF 450 03:47:50 00:26:34
31 035 CECI Paolo BORDONE-FERRARI KTM - 450 RR 03:48:46 00:27:30
32 026 RODRIGUES FILHO Jose helio HUSQVARNA RALLYE TEAM BY SPEEDBRAIN HUQSVARNA - RALLY 450 RR 03:51:39 00:30:23
33 049 DABROWSKI Marek ORLEN TEAM KTM - 450 RR 03:52:02 00:30:46
34 041 PROHENS Felipe TAMARUGAL HONDA RACING XC RALLY TEAM HONDA (Transformada) - CRF450X RALLY 03:52:41 00:31:25
35 145 NUTTALL Dean MEMO TOURS - ALFIE COX TEAM KTM - 450 Replica 03:55:09 00:33:53
36 066 LORMAND Etienne ROUSSILL'HOTEL - HFP YAMAHA - 450 WRF 03:56:03 00:34:47
37 077 PICCO Franco FRANCO PICCO RACING YAMAHA - WRF 450 03:58:27 00:37:11
38 048 LIEFHEBBER Hans-jos KTM - 450 RR 03:59:09 00:37:53
39 082 GUINDANI Vincent HFP YAMAHA - YZR 450 04:00:35 00:39:19
40 042 PROHENS Jaime TAMARUGAL HONDA RACING XC RALLY TEAM HONDA - CRF 450X RALLY 04:01:41 00:40:25
41 045 SANZ PLA-GILIBERT Eulalia GAS GAS GAS - GAS - EC 450 04:02:55 00:41:39
42 057 WILLEMSEN Daniel TEAM HONDA EUROPE HONDA - CRF 450 X 04:05:48 00:44:32
43 181 RIOS FELIPE KTM PERU RALLY TEAM KTM - Rally Replica 04:07:59 00:46:43
44 058 PUERTAS HERRERA Miguel HIMOINSA DAKAR TEAM YAMAHA - 450 WR 04:08:45 00:47:29
45 185 SANCHEZ MARCELO TEAM RPM KAWASAKI KAWASAKI - KLX 450 R 04:09:17 00:48:01
46 060 WATT Stanley FRONT ROW GB / CRECENT KTM KTM - 450 RR 04:10:28 00:49:12
47 046 BIANCHI PRATA Pedro TEAM BIANCHI PRATA / VODAFONE HUSQUARNA - TE449 RALLY 04:12:13 00:50:57
48 159 CHITTICK Jamie GHR HONDA HONDA - CRF450X 04:12:17 00:51:01
49 138 LECOQ SEBASTIEN TEAM PERFORMANCE ENDURO YAMAHA - 450 YZFE 04:16:29 00:55:13
50 062 SCHWARZ David HUSABERG RALLYE RACING AUSTRALIA HUSABERG - FE450 04:18:46 00:57:30
51 148 GOMEZ Mauricio PACO GOMEZ RALLY TEAM YAMAHA - WR 450 04:22:47 01:01:31
52 168 GUIRAL DEMIAN AVANT MOTOS HONDA GENUINE OIL HONDA - CRF 450X 04:24:24 01:03:08
53 081 SUESSE NED ADVRIDER/ NEDURO KTM - 450XCW 04:27:24 01:06:08
54 059 CIOTTI Filippo FRANCO PICCO RACING RIEJU - MRT 450 04:27:49 01:06:33
55 165 MULDER GEERT TEAM HONDA EUROPE HONDA - CFR 450 X 04:31:16 01:10:00
56 086 MUNK Jes X-RAGE RACING KTM - 450 04:32:21 01:11:05
57 071 BUTUZA Marcel BOANO HONDA - CRE F 450 X 04:34:34 01:13:18
58 069 PAYEN Hugo YAMAHA - 450 WRF 04:35:21 01:14:05
59 029 BERGLUND Thomas HUSABERG RALLY TEAM SCANDINAVIA HUSABERG - FE 450 04:49:00 01:27:44

Classement général Moto

RangNuméroPilote/EquipageEquipeMarque - ModèleTempsRetard
1 002 DESPRES Cyril TEAM RED BULL KTM KTM - 450cc Rally 43:01:54
2 001 COMA Marc KTM MRW RALLY DAKAR EAM KTM - 450 cc 43:12:57 00:11:03
3 003 RODRIGUES Helder TEAM YAMAHA RACING YAMAHA - WRF 450 44:13:21 01:11:27
4 010 VILADOMS Jordi BORDONE-FERRARI KTM - Rally Replica 44:43:06 01:41:12
5 032 SVITKO Stefan HANT LOGOMOTION SLOVAKIA KTM - 450 RR 44:51:30 01:49:36
6 006 ULLEVALSETER Pal Anders TEAM ULLEVALSETER KTM - 450 R 45:17:41 02:15:47
7 020 FARRES GUELL Gerard BORDONE-FERRARI KTM - 450 RALLY REPLICA 45:18:06 02:16:12
8 034 BOTTURI ALESSANDRO BORDONE-FERRARI KTM - 450 RALLY REPLICA 46:02:38 03:00:44
9 016 PAIN Olivier TEAM YAMAHA RACING YAMAHA - 450 YZF Rally 46:20:40 03:18:46
10 028 ZANOL FELIPE KTM BRASIL KTM - 450 Replica 46:26:31 03:24:37
11 023 BARREDA BORT Joan HUSQVARNA RALLYE TEAM BY SPEEDBRAIN HUSQVARNA - Rally 450 RR 46:39:26 03:37:32
12 008 FARIA Ruben TEAM RED BULL KTM KTM - 450 CC RALLY 46:54:04 03:52:10
13 021 AUBERT JOHNNY KTM RALLY FACTORY TEAM KTM - 450 RALLY 47:38:28 04:36:34
14 017 CZACHOR Jacek ORLEN TEAM KTM - 450 Replica 47:39:46 04:37:52
15 015 VERHOEVEN Frans SHERCO RALLY RAID - CROCOAVENTURES SHERCO - SR 450 48:06:27 05:04:33
16 018 KNUIMAN Henk WIM MOTORS DAKAR KTM - 450 REPLICA 48:17:03 05:15:09
17 039 GYENES Emanuel VECTRA RACING KTM - 450 RR 48:28:47 05:26:53
18 035 CECI Paolo BORDONE-FERRARI KTM - 450 RR 48:44:21 05:42:27
19 026 RODRIGUES FILHO Jose helio HUSQVARNA RALLYE TEAM BY SPEEDBRAIN HUQSVARNA - RALLY 450 RR 49:14:53 06:12:59
20 064 SCHRÖDER DANIEL MEMO TOURS - ALFIE COX TEAM KTM - 450cc 49:16:46 06:14:52
21 012 PELLICER Jose Manuel HUSQVARNA RALLYE TEAM BY SPEEDBRAIN HUSQVARNA - Rally 450 RR 49:53:33 06:51:39
22 033 BETHYS Thierry YAMAHA - 450 YZF Rally 50:06:23 07:04:29
23 144 CURTIS Darryl MEMO TOURS - ALFIE COX TEAM KTM - 450 Replica 50:20:54 07:19:00
24 089 NASCIMENTO DENISIO PETROBRAS LUBRAX HONDA - CRF 450 50:50:38 07:48:44
25 040 SERRADORI Mathieu KTM - 450 Rally 50:56:07 07:54:13
26 007 GONCALVES Paulo HUSQVARNA RALLYE TEAM BY SPEEDBRAIN Husqvarna - Rally 450 RR 51:08:37 08:06:43
27 048 LIEFHEBBER Hans-jos KTM - 450 RR 51:21:43 08:19:49
28 110 BIRCH Christopher MEMO TOURS - ALFIE COX TEAM KTM - 450 Replica 51:25:48 08:23:54
29 082 GUINDANI Vincent HFP YAMAHA - YZR 450 51:40:47 08:38:53
30 041 PROHENS Felipe TAMARUGAL HONDA RACING XC RALLY TEAM HONDA (Transformada) - CRF450X RALLY 52:18:27 09:16:33
31 049 DABROWSKI Marek ORLEN TEAM KTM - 450 RR 52:19:13 09:17:19
32 042 PROHENS Jaime TAMARUGAL HONDA RACING XC RALLY TEAM HONDA - CRF 450X RALLY 52:48:02 09:46:08
33 050 SALVATIERRA Juan Carlos GHR HONDA HONDA - CRF450X 52:48:47 09:46:53
34 053 RODRIGUEZ Claudio TAMARUGAL HONDA RACING XC RALLY TEAM HONDA - CRF 450 X 53:12:48 10:10:54
35 066 LORMAND Etienne ROUSSILL'HOTEL - HFP YAMAHA - 450 WRF 54:03:28 11:01:34
36 060 WATT Stanley FRONT ROW GB / CRECENT KTM KTM - 450 RR 54:05:56 11:04:02
37 183 RODRIGUEZ Pablo HONDA RACING ARGENTINA HONDA - CRF450X 54:49:59 11:48:05
38 029 BERGLUND Thomas HUSABERG RALLY TEAM SCANDINAVIA HUSABERG - FE 450 55:12:59 12:11:05
39 057 WILLEMSEN Daniel TEAM HONDA EUROPE HONDA - CRF 450 X 55:14:12 12:12:18
40 045 SANZ PLA-GILIBERT Eulalia GAS GAS GAS - GAS - EC 450 55:25:03 12:23:09
41 145 NUTTALL Dean MEMO TOURS - ALFIE COX TEAM KTM - 450 Replica 55:43:45 12:41:51
42 014 CASTEU David TEAM YAMAHA RACING YAMAHA - 450 WRF Rally 55:45:00 12:43:06
43 046 BIANCHI PRATA Pedro TEAM BIANCHI PRATA / VODAFONE HUSQUARNA - TE449 RALLY 55:57:28 12:55:34
44 062 SCHWARZ David HUSABERG RALLYE RACING AUSTRALIA HUSABERG - FE450 56:03:15 13:01:21
45 071 BUTUZA Marcel BOANO HONDA - CRE F 450 X 56:19:37 13:17:43
46 077 PICCO Franco FRANCO PICCO RACING YAMAHA - WRF 450 56:42:36 13:40:42
47 148 GOMEZ Mauricio PACO GOMEZ RALLY TEAM YAMAHA - WR 450 57:02:44 14:00:50
48 185 SANCHEZ MARCELO TEAM RPM KAWASAKI KAWASAKI - KLX 450 R 57:20:30 14:18:36
49 181 RIOS FELIPE KTM PERU RALLY TEAM KTM - Rally Replica 57:24:26 14:22:32
50 138 LECOQ SEBASTIEN TEAM PERFORMANCE ENDURO YAMAHA - 450 YZFE 58:02:43 15:00:49
51 059 CIOTTI Filippo FRANCO PICCO RACING RIEJU - MRT 450 58:07:53 15:05:59
52 086 MUNK Jes X-RAGE RACING KTM - 450 58:14:31 15:12:37
53 081 SUESSE NED ADVRIDER/ NEDURO KTM - 450XCW 58:18:05 15:16:11
54 159 CHITTICK Jamie GHR HONDA HONDA - CRF450X 58:21:37 15:19:43
55 092 HAMARD Stephane REUNION RALLYE RAID KTM - 450 RR 58:51:07 15:49:13
56 087 MEILLAT Christophe C.M PROMO KAWASAKI - KLX 450 R 59:05:32 16:03:38
57 061 MATTOS Dimas BRASIL MOTO TOUR KTM - 450 RR 59:23:47 16:21:53
58 022 DUCLOS Alain GIOFIL APRILIA APRILIA - RXV 4.5 Rally 60:09:45 17:07:51
59 069 PAYEN Hugo YAMAHA - 450 WRF 60:17:03 17:15:09
60 165 MULDER GEERT TEAM HONDA EUROPE HONDA - CFR 450 X 60:17:30 17:15:36
61 065 LAZARD Laurent MOTO TEAM BY ELF YAMAHA - WR 450 60:48:51 17:46:57
62 168 GUIRAL DEMIAN AVANT MOTOS HONDA GENUINE OIL HONDA - CRF 450X 61:04:33 18:02:39
63 058 PUERTAS HERRERA Miguel HIMOINSA DAKAR TEAM YAMAHA - 450 WR 61:08:59 18:07:05
64 075 BUSIN Pablo MOTO TEAM BY ELF YAMAHA - 450 WR 62:59:40 19:57:46

 

 

Aucune note. Soyez le premier à attribuer une note !

Ajouter un commentaire
 

Créer un site gratuit avec e-monsite - Signaler un contenu illicite sur ce site

×